| time (UTC) | temp F | wind direction | speed knots | gust knots | rain 1hr in | rain 24hr in | rain mn in | humidity % | barometer mb |
| 20260903154224 | 63 | 340 | 0.9 | 0.9 | 0.00 | 0.00 | 0.04 | 99 | 1016.6 |
| 20260903153823 | 63 | 354 | 1.7 | 1.7 | 0.00 | 0.00 | 0.04 | 99 | 1016.5 |
| 20260903153222 | 62 | 321 | 0.0 | 0.9 | 0.00 | 0.00 | 0.04 | 99 | 1016.8 |
| 20260903152723 | 62 | 341 | 0.9 | 0.9 | 0.00 | 0.00 | 0.04 | 99 | 1016.8 |
| 20260903152222 | 62 | 312 | 1.7 | 1.7 | 0.00 | 0.00 | 0.04 | 99 | 1016.8 |
| 20260903151722 | 62 | 312 | 0.9 | 1.7 | 0.00 | 0.00 | 0.04 | 99 | 1016.8 |
| 20260903151221 | 62 | 329 | 0.0 | 0.9 | 0.00 | 0.00 | 0.04 | 99 | 1016.8 |
| 20260903150723 | 62 | 285 | 1.7 | 2.6 | 0.00 | 0.00 | 0.04 | 99 | 1017.0 |
| 20260903150224 | 62 | 332 | 1.7 | 1.7 | 0.00 | 0.00 | 0.04 | 99 | 1016.8 |
| 20260903145721 | 61 | 331 | 0.9 | 1.7 | 0.00 | 0.00 | 0.04 | 99 | 1016.8 |
| 20260903145220 | 62 | 339 | 0.9 | 0.9 | 0.00 | 0.00 | 0.04 | 99 | 1017.0 |
| 20260903144721 | 61 | 335 | 0.9 | 0.9 | 0.00 | 0.00 | 0.04 | 99 | 1016.8 |
| 20260903144222 | 61 | 316 | 0.9 | 0.9 | 0.00 | 0.00 | 0.04 | 99 | 1017.2 |
| 20260903143719 | 61 | 329 | 0.0 | 0.9 | 0.00 | 0.00 | 0.04 | 99 | 1017.2 |
| 20260903143220 | 61 | 329 | 0.9 | 0.9 | 0.00 | 0.00 | 0.04 | 99 | 1017.2 |
| 20260903142719 | 61 | 328 | 0.9 | 0.9 | 0.00 | 0.00 | 0.04 | 99 | 1017.2 |
| 20260903142219 | 61 | 0.0 | 0.0 | 0.00 | 0.00 | 0.04 | 99 | 1017.2 | |
| 20260903141908 | 61 | 339 | 0.0 | 0.9 | 0.00 | 0.00 | 0.04 | 99 | 1017.2 |
| 20260903141219 | 60 | 334 | 0.0 | 0.9 | 0.00 | 0.00 | 0.04 | 99 | 1017.2 |
| 20260903140718 | 60 | 341 | 0.9 | 1.7 | 0.00 | 0.00 | 0.04 | 99 | 1017.0 |
| 20260903140218 | 60 | 336 | 0.9 | 0.9 | 0.00 | 0.00 | 0.04 | 99 | 1017.0 |
| 20260903135718 | 60 | 344 | 0.9 | 1.7 | 0.00 | 0.00 | 0.04 | 99 | 1017.2 |
| 20260903134717 | 60 | 5 | 1.7 | 2.6 | 0.00 | 0.00 | 0.04 | 99 | 1017.2 |
| 20260903134216 | 60 | 358 | 0.9 | 1.7 | 0.00 | 0.00 | 0.04 | 99 | 1017.2 |
| 20260903133745 | 60 | 346 | 0.9 | 1.7 | 0.00 | 0.00 | 0.04 | 99 | 1017.2 |
| 20260903133246 | 60 | 14 | 1.7 | 1.7 | 0.00 | 0.00 | 0.04 | 99 | 1017.2 |
| 20260903132745 | 60 | 326 | 0.9 | 0.9 | 0.00 | 0.00 | 0.04 | 99 | 1017.2 |
| 20260903132244 | 60 | 326 | 1.7 | 1.7 | 0.00 | 0.00 | 0.04 | 99 | 1017.2 |
| 20260903131745 | 60 | 347 | 0.0 | 0.9 | 0.00 | 0.00 | 0.04 | 99 | 1017.2 |
| 20260903131244 | 60 | 336 | 0.0 | 0.9 | 0.00 | 0.00 | 0.04 | 99 | 1017.2 |
| 20260903130743 | 60 | 352 | 1.7 | 1.7 | 0.00 | 0.00 | 0.04 | 99 | 1017.2 |
| 20260903130243 | 59 | 344 | 0.9 | 0.9 | 0.00 | 0.00 | 0.04 | 99 | 1017.2 |
| 20260903125742 | 59 | 12 | 1.7 | 2.6 | 0.00 | 0.00 | 0.04 | 99 | 1017.2 |
| 20260903125243 | 59 | 346 | 1.7 | 1.7 | 0.00 | 0.00 | 0.04 | 99 | 1017.2 |
| 20260903124844 | 59 | 330 | 0.9 | 1.7 | 0.00 | 0.00 | 0.04 | 99 | 1017.3 |
| 20260903124242 | 59 | 339 | 0.9 | 1.7 | 0.00 | 0.00 | 0.04 | 99 | 1017.3 |
| 20260903123741 | 59 | 7 | 2.6 | 2.6 | 0.00 | 0.00 | 0.04 | 99 | 1017.5 |
| 20260903123242 | 59 | 323 | 1.7 | 2.6 | 0.00 | 0.00 | 0.04 | 99 | 1017.5 |
| 20260903114739 | 59 | 323 | 1.7 | 1.7 | 0.00 | 0.00 | 0.04 | 99 | 1017.9 |
| 20260903114238 | 59 | 341 | 1.7 | 2.6 | 0.00 | 0.00 | 0.04 | 99 | 1017.9 |
| 20260903113238 | 59 | 136 | 3.5 | 5.2 | 0.00 | 0.00 | 0.04 | 99 | 1017.9 |
| 20260903112738 | 59 | 81 | 2.6 | 4.3 | 0.00 | 0.00 | 0.04 | 99 | 1017.9 |
| 20260903112337 | 59 | 299 | 1.7 | 1.7 | 0.00 | 0.00 | 0.04 | 99 | 1017.9 |
| 20260903111736 | 59 | 58 | 1.7 | 4.3 | 0.00 | 0.00 | 0.04 | 99 | 1017.9 |
| 20260903111235 | 59 | 164 | 2.6 | 5.2 | 0.00 | 0.00 | 0.04 | 99 | 1017.9 |
| 20260903110736 | 59 | 213 | 2.6 | 4.3 | 0.00 | 0.00 | 0.04 | 99 | 1017.9 |
| 20260903110235 | 59 | 254 | 2.6 | 2.6 | 0.00 | 0.00 | 0.04 | 99 | 1017.9 |
| 20260903105734 | 59 | 50 | 2.6 | 2.6 | 0.00 | 0.00 | 0.04 | 99 | 1017.9 |
| 20260903105236 | 58 | 268 | 0.9 | 1.7 | 0.00 | 0.00 | 0.04 | 99 | 1017.9 |
| 20260903104735 | 58 | 282 | 1.7 | 2.6 | 0.00 | 0.00 | 0.04 | 99 | 1017.9 |
| 20260903104234 | 58 | 29 | 2.6 | 2.6 | 0.00 | 0.00 | 0.04 | 99 | 1017.9 |
| 20260903103733 | 58 | 335 | 1.7 | 1.7 | 0.00 | 0.00 | 0.04 | 99 | 1017.7 |
| 20260903103232 | 58 | 9 | 1.7 | 2.6 | 0.00 | 0.00 | 0.04 | 99 | 1017.5 |
| 20260903102734 | 58 | 313 | 0.9 | 1.7 | 0.00 | 0.00 | 0.04 | 99 | 1017.5 |
| 20260903102233 | 58 | 118 | 2.6 | 4.3 | 0.00 | 0.00 | 0.04 | 99 | 1017.5 |
| 20260903101732 | 58 | 6 | 1.7 | 2.6 | 0.00 | 0.00 | 0.04 | 99 | 1017.5 |
| 20260903101231 | 58 | 164 | 2.6 | 5.2 | 0.00 | 0.00 | 0.04 | 99 | 1017.9 |
| 20260903100734 | 58 | 318 | 1.7 | 1.7 | 0.00 | 0.00 | 0.04 | 99 | 1017.5 |
| 20260903100232 | 58 | 105 | 2.6 | 4.3 | 0.00 | 0.00 | 0.04 | 99 | 1017.9 |
| 20260903095731 | 58 | 341 | 0.9 | 1.7 | 0.00 | 0.00 | 0.04 | 99 | 1017.9 |
| 20260903095230 | 58 | 326 | 1.7 | 2.6 | 0.00 | 0.00 | 0.03 | 99 | 1017.9 |
| 20260903094731 | 58 | 32 | 1.7 | 2.6 | 0.00 | 0.00 | 0.03 | 99 | 1017.9 |
| 20260903094235 | 58 | 112 | 3.5 | 4.3 | 0.00 | 0.00 | 0.03 | 99 | 1017.9 |
| 20260903093735 | 58 | 43 | 2.6 | 4.3 | 0.00 | 0.00 | 0.03 | 99 | 1017.9 |
| 20260903093229 | 58 | 46 | 2.6 | 2.6 | 0.00 | 0.00 | 0.03 | 99 | 1017.9 |
| 20260903092728 | 58 | 228 | 2.6 | 2.6 | 0.00 | 0.00 | 0.03 | 99 | 1017.5 |
| 20260903092229 | 58 | 90 | 3.5 | 5.2 | 0.00 | 0.00 | 0.03 | 99 | 1017.9 |
| 20260903091230 | 58 | 49 | 2.6 | 5.2 | 0.00 | 0.00 | 0.03 | 99 | 1017.5 |
| 20260903090727 | 58 | 167 | 4.3 | 6.1 | 0.00 | 0.00 | 0.03 | 99 | 1017.9 |
| 20260903085227 | 58 | 59 | 6.1 | 9.6 | 0.00 | 0.00 | 0.03 | 99 | 1017.9 |
| 20260903084728 | 58 | 4 | 2.6 | 2.6 | 0.00 | 0.00 | 0.03 | 99 | 1017.9 |
| 20260903084227 | 58 | 50 | 2.6 | 4.3 | 0.00 | 0.00 | 0.03 | 99 | 1018.2 |
| 20260903083726 | 58 | 173 | 4.3 | 5.2 | 0.00 | 0.00 | 0.03 | 99 | 1018.2 |
| 20260903083225 | 58 | 341 | 1.7 | 2.6 | 0.00 | 0.00 | 0.03 | 99 | 1018.4 |
| 20260903082724 | 58 | 74 | 3.5 | 4.3 | 0.00 | 0.00 | 0.03 | 99 | 1018.2 |
| 20260903081725 | 58 | 21 | 0.9 | 1.7 | 0.00 | 0.00 | 0.03 | 99 | 1018.4 |
| 20260903080225 | 58 | 8 | 0.9 | 1.7 | 0.00 | 0.00 | 0.03 | 99 | 1018.2 |
| 20260903075728 | 58 | 325 | 0.9 | 1.7 | 0.00 | 0.00 | 0.03 | 99 | 1018.2 |
| 20260903075223 | 58 | 354 | 1.7 | 2.6 | 0.00 | 0.00 | 0.03 | 99 | 1018.6 |
| 20260903074223 | 58 | 337 | 0.0 | 0.9 | 0.00 | 0.00 | 0.03 | 99 | 1018.4 |
| 20260903073722 | 58 | 8 | 1.7 | 2.6 | 0.00 | 0.00 | 0.03 | 99 | 1018.6 |
| 20260903073221 | 58 | 26 | 2.6 | 4.3 | 0.00 | 0.00 | 0.03 | 99 | 1018.6 |
| 20260903072720 | 58 | 7 | 1.7 | 1.7 | 0.00 | 0.00 | 0.03 | 99 | 1018.6 |
| 20260903072222 | 58 | 355 | 0.9 | 1.7 | 0.00 | 0.00 | 0.03 | 99 | 1018.6 |
| 20260903071721 | 58 | 11 | 2.6 | 2.6 | 0.00 | 0.00 | 0.03 | 99 | 1018.6 |
| 20260903071221 | 58 | 76 | 2.6 | 4.3 | 0.00 | 0.00 | 0.03 | 99 | 1018.6 |
| 20260903070719 | 58 | 163 | 2.6 | 5.2 | 0.00 | 0.00 | 0.03 | 99 | 1018.6 |
| 20260903070218 | 58 | 11 | 1.7 | 2.6 | 0.00 | 0.00 | 0.03 | 99 | 1018.6 |
| 20260903065720 | 58 | 325 | 0.0 | 0.9 | 0.00 | 0.00 | 0.03 | 99 | 1018.7 |
| 20260903065219 | 58 | 340 | 0.9 | 1.7 | 0.00 | 0.00 | 0.03 | 99 | 1018.6 |
| 20260903064718 | 58 | 351 | 1.7 | 2.6 | 0.00 | 0.00 | 0.03 | 99 | 1018.6 |
| 20260903063718 | 58 | 79 | 3.5 | 5.2 | 0.00 | 0.00 | 0.03 | 99 | 1018.6 |
| 20260903063217 | 58 | 4 | 1.7 | 2.6 | 0.00 | 0.00 | 0.03 | 99 | 1018.6 |
| 20260903062717 | 58 | 9 | 1.7 | 2.6 | 0.00 | 0.00 | 0.03 | 99 | 1018.6 |
| 20260903062216 | 58 | 123 | 3.5 | 5.2 | 0.00 | 0.00 | 0.03 | 99 | 1018.6 |
| 20260903061858 | 59 | 66 | 4.3 | 7.8 | 0.00 | 0.00 | 0.03 | 99 | 1018.6 |
| 20260903050742 | 61 | 25 | 2.6 | 4.3 | 0.00 | 0.00 | 0.00 | 91 | 1020.0 |
| 20260903050241 | 61 | 346 | 2.6 | 4.3 | 0.00 | 0.00 | 0.00 | 91 | 1020.1 |
| 20260903045742 | 61 | 40 | 3.5 | 4.3 | 0.00 | 0.00 | 0.00 | 90 | 1020.0 |
| 20260903045241 | 61 | 172 | 5.2 | 7.0 | 0.00 | 0.00 | 0.00 | 89 | 1020.0 |
| 20260903044740 | 62 | 95 | 4.3 | 5.2 | 0.00 | 0.00 | 0.00 | 89 | 1020.0 |
| 20260903044240 | 62 | 114 | 7.0 | 7.8 | 0.00 | 0.00 | 0.00 | 89 | 1019.8 |
| 20260903043739 | 62 | 57 | 3.5 | 4.3 | 0.00 | 0.00 | 0.00 | 89 | 1020.0 |
| 20260903043240 | 62 | 64 | 2.6 | 4.3 | 0.00 | 0.00 | 0.00 | 89 | 1020.0 |
| 20260903042739 | 62 | 52 | 1.7 | 2.6 | 0.00 | 0.00 | 0.00 | 90 | 1020.0 |
| 20260903042238 | 62 | 138 | 6.1 | 8.7 | 0.00 | 0.00 | 0.00 | 89 | 1020.0 |
| 20260903041738 | 62 | 171 | 5.2 | 6.1 | 0.00 | 0.00 | 0.00 | 90 | 1020.0 |
| 20260903041341 | 62 | 158 | 4.3 | 7.0 | 0.00 | 0.00 | 0.00 | 90 | 1020.3 |
| 20260903040738 | 62 | 192 | 2.6 | 4.3 | 0.00 | 0.00 | 0.00 | 90 | 1020.3 |
| 20260903040239 | 62 | 86 | 3.5 | 4.3 | 0.00 | 0.00 | 0.00 | 91 | 1020.3 |
| 20260903035737 | 62 | 21 | 2.6 | 2.6 | 0.00 | 0.00 | 0.00 | 92 | 1020.7 |
| 20260903035238 | 62 | 149 | 2.6 | 4.3 | 0.00 | 0.00 | 0.00 | 92 | 1020.7 |
| 20260903034738 | 62 | 249 | 3.5 | 4.3 | 0.00 | 0.00 | 0.00 | 92 | 1020.3 |
| 20260903034236 | 62 | 249 | 2.6 | 4.3 | 0.00 | 0.00 | 0.00 | 93 | 1020.3 |
| 20260903033735 | 62 | 115 | 3.5 | 4.3 | 0.00 | 0.00 | 0.00 | 93 | 1020.3 |
| 20260903033236 | 62 | 119 | 2.6 | 4.3 | 0.00 | 0.00 | 0.00 | 93 | 1020.3 |
| 20260903032736 | 62 | 54 | 2.6 | 4.3 | 0.00 | 0.00 | 0.00 | 93 | 1020.7 |
| 20260903032237 | 62 | 354 | 1.7 | 2.6 | 0.00 | 0.00 | 0.00 | 94 | 1020.3 |
| 20260903031737 | 62 | 353 | 1.7 | 1.7 | 0.00 | 0.00 | 0.00 | 94 | 1020.7 |
| 20260903031336 | 62 | 178 | 3.5 | 6.1 | 0.00 | 0.00 | 0.00 | 94 | 1021.0 |
| 20260903030735 | 62 | 338 | 2.6 | 4.3 | 0.00 | 0.00 | 0.00 | 94 | 1020.8 |
| 20260903030234 | 62 | 96 | 3.5 | 4.3 | 0.00 | 0.00 | 0.00 | 95 | 1021.0 |
| 20260903025734 | 62 | 176 | 2.6 | 4.3 | 0.00 | 0.00 | 0.00 | 95 | 1021.0 |
| 20260903025234 | 62 | 44 | 3.5 | 5.2 | 0.00 | 0.00 | 0.00 | 96 | 1021.0 |
| 20260903024733 | 62 | 343 | 1.7 | 2.6 | 0.00 | 0.00 | 0.00 | 96 | 1020.8 |
| 20260903024232 | 62 | 323 | 1.7 | 2.6 | 0.00 | 0.00 | 0.00 | 96 | 1021.0 |
| 20260903023733 | 62 | 357 | 0.9 | 1.7 | 0.00 | 0.00 | 0.00 | 97 | 1021.0 |
| 20260903023232 | 62 | 20 | 2.6 | 2.6 | 0.00 | 0.00 | 0.00 | 98 | 1021.0 |
| 20260903022732 | 62 | 8 | 2.6 | 4.3 | 0.00 | 0.00 | 0.00 | 98 | 1021.0 |
| 20260903022231 | 62 | 338 | 1.7 | 1.7 | 0.00 | 0.00 | 0.00 | 98 | 1021.4 |
| 20260903021730 | 62 | 12 | 2.6 | 2.6 | 0.00 | 0.00 | 0.00 | 98 | 1021.0 |
| 20260903021231 | 62 | 184 | 1.7 | 4.3 | 0.00 | 0.00 | 0.00 | 98 | 1021.0 |
| 20260903020730 | 62 | 96 | 2.6 | 4.3 | 0.00 | 0.00 | 0.00 | 98 | 1021.4 |
| 20260903020231 | 62 | 19 | 2.6 | 4.3 | 0.00 | 0.00 | 0.00 | 97 | 1021.4 |
| 20260903015830 | 62 | 335 | 0.0 | 0.9 | 0.00 | 0.00 | 0.00 | 97 | 1021.4 |
| 20260903015230 | 62 | 350 | 0.9 | 1.7 | 0.00 | 0.00 | 0.00 | 97 | 1021.5 |
| 20260903014729 | 62 | 43 | 2.6 | 4.3 | 0.00 | 0.00 | 0.00 | 97 | 1021.4 |
| 20260903014228 | 62 | 358 | 0.9 | 1.7 | 0.00 | 0.00 | 0.00 | 96 | 1021.7 |
| 20260903013729 | 62 | 319 | 1.7 | 1.7 | 0.00 | 0.00 | 0.00 | 96 | 1021.7 |
| 20260903013228 | 62 | 9 | 1.7 | 2.6 | 0.00 | 0.00 | 0.00 | 96 | 1021.7 |
| 20260903012727 | 62 | 91 | 4.3 | 5.2 | 0.00 | 0.00 | 0.00 | 95 | 1021.7 |
| 20260903012227 | 62 | 31 | 1.7 | 2.6 | 0.00 | 0.00 | 0.00 | 95 | 1021.7 |
| 20260903011726 | 62 | 39 | 2.6 | 2.6 | 0.00 | 0.00 | 0.00 | 95 | 1022.1 |
| 20260903011227 | 62 | 114 | 7.0 | 7.8 | 0.00 | 0.00 | 0.00 | 95 | 1021.7 |
| 20260903010726 | 62 | 0.0 | 0.0 | 0.00 | 0.00 | 0.00 | 95 | 1022.1 | |
| 20260903010225 | 62 | 270 | 3.5 | 4.3 | 0.00 | 0.00 | 0.00 | 94 | 1022.1 |
| 20260903005725 | 62 | 134 | 2.6 | 4.3 | 0.00 | 0.00 | 0.00 | 94 | 1021.7 |
| 20260903005224 | 62 | 170 | 5.2 | 6.1 | 0.00 | 0.00 | 0.00 | 94 | 1021.4 |
| 20260903004725 | 63 | 196 | 2.6 | 4.3 | 0.00 | 0.00 | 0.00 | 94 | 1021.4 |
| 20260903004227 | 63 | 217 | 3.5 | 5.2 | 0.00 | 0.00 | 0.00 | 93 | 1021.4 |
| 20260903003827 | 63 | 187 | 3.5 | 7.0 | 0.00 | 0.00 | 0.00 | 93 | 1021.4 |
| 20260903003223 | 63 | 220 | 2.6 | 4.3 | 0.00 | 0.00 | 0.00 | 93 | 1021.4 |
| 20260903002824 | 63 | 28 | 2.6 | 4.3 | 0.00 | 0.00 | 0.00 | 93 | 1021.4 |
| 20260903002223 | 63 | 82 | 3.5 | 6.1 | 0.00 | 0.00 | 0.00 | 93 | 1021.0 |
| 20260903001724 | 63 | 169 | 2.6 | 2.6 | 0.00 | 0.00 | 0.00 | 93 | 1021.0 |
| 20260903001221 | 63 | 17 | 1.7 | 2.6 | 0.00 | 0.00 | 0.00 | 93 | 1020.8 |
| 20260903000723 | 63 | 163 | 3.5 | 5.2 | 0.00 | 0.00 | 0.00 | 93 | 1021.0 |
| 20260902235721 | 63 | 126 | 6.1 | 8.7 | 0.00 | 0.00 | 0.00 | 93 | 1021.0 |
| 20260902235221 | 64 | 153 | 6.1 | 7.0 | 0.00 | 0.00 | 0.00 | 94 | 1021.0 |
| 20260902234721 | 64 | 153 | 6.1 | 7.0 | 0.00 | 0.00 | 0.00 | 94 | 1021.4 |
| 20260902233821 | 64 | 102 | 4.3 | 6.1 | 0.00 | 0.00 | 0.00 | 99 | 1021.4 |
| 20260902233222 | 64 | 102 | 4.3 | 6.1 | 0.00 | 0.00 | 0.00 | 99 | 1021.4 |
| 20260902232720 | 64 | 3 | 2.6 | 4.3 | 0.00 | 0.00 | 0.00 | 99 | 1021.4 |
| 20260902232321 | 64 | 316 | 1.7 | 1.7 | 0.00 | 0.00 | 0.00 | 99 | 1021.7 |
| 20260902231718 | 64 | 359 | 1.7 | 1.7 | 0.00 | 0.00 | 0.00 | 99 | 1021.7 |
| 20260902231319 | 64 | 9 | 1.7 | 1.7 | 0.00 | 0.00 | 0.00 | 99 | 1022.1 |
| 20260902230717 | 64 | 322 | 0.9 | 1.7 | 0.00 | 0.00 | 0.00 | 99 | 1022.2 |
| 20260902230218 | 64 | 337 | 0.9 | 0.9 | 0.00 | 0.00 | 0.00 | 99 | 1022.4 |
| 20260902225820 | 64 | 25 | 1.7 | 2.6 | 0.00 | 0.00 | 0.00 | 99 | 1022.4 |
| 20260902225216 | 64 | 0.0 | 0.0 | 0.00 | 0.00 | 0.00 | 99 | 1022.8 | |
| 20260902224717 | 64 | 340 | 0.9 | 1.7 | 0.00 | 0.00 | 0.00 | 99 | 1022.8 |
| 20260902224320 | 64 | 336 | 0.9 | 1.7 | 0.00 | 0.00 | 0.00 | 99 | 1022.8 |
| 20260902223746 | 64 | 342 | 0.9 | 0.9 | 0.00 | 0.00 | 0.00 | 99 | 1022.8 |
| 20260902223246 | 64 | 346 | 0.9 | 1.7 | 0.00 | 0.00 | 0.00 | 99 | 1022.8 |
| 20260902222744 | 65 | 342 | 0.9 | 0.9 | 0.00 | 0.00 | 0.00 | 99 | 1023.1 |
| 20260902222245 | 65 | 347 | 0.9 | 0.9 | 0.00 | 0.00 | 0.00 | 98 | 1022.8 |
| 20260902221244 | 65 | 0.0 | 0.0 | 0.00 | 0.00 | 0.00 | 97 | 1023.1 | |
| 20260902220743 | 65 | 332 | 0.0 | 0.9 | 0.00 | 0.00 | 0.00 | 97 | 1023.1 |
| 20260902220244 | 65 | 332 | 0.9 | 0.9 | 0.00 | 0.00 | 0.00 | 96 | 1023.1 |
| 20260902215243 | 65 | 320 | 0.9 | 1.7 | 0.00 | 0.00 | 0.00 | 96 | 1023.1 |
| 20260902214742 | 65 | 319 | 0.0 | 0.9 | 0.00 | 0.00 | 0.00 | 97 | 1023.1 |
| 20260902214241 | 65 | 0.0 | 0.0 | 0.00 | 0.00 | 0.00 | 97 | 1022.8 | |
| 20260902213743 | 65 | 338 | 0.0 | 0.9 | 0.00 | 0.00 | 0.00 | 97 | 1023.1 |
| 20260902213241 | 65 | 323 | 0.9 | 0.9 | 0.00 | 0.00 | 0.00 | 97 | 1022.8 |
| 20260902212741 | 65 | 323 | 0.9 | 1.7 | 0.00 | 0.00 | 0.00 | 97 | 1022.8 |
| 20260902212242 | 65 | 334 | 0.0 | 0.9 | 0.00 | 0.00 | 0.00 | 97 | 1022.8 |
| 20260902211741 | 65 | 336 | 0.0 | 0.9 | 0.00 | 0.00 | 0.00 | 97 | 1022.8 |
| 20260902211242 | 65 | 342 | 0.9 | 0.9 | 0.00 | 0.00 | 0.00 | 96 | 1022.8 |
| 20260902210743 | 65 | 335 | 0.0 | 0.9 | 0.00 | 0.00 | 0.00 | 96 | 1022.8 |
| 20260902210241 | 65 | 0.0 | 0.0 | 0.00 | 0.00 | 0.00 | 97 | 1023.1 | |
| 20260902205740 | 65 | 335 | 0.9 | 0.9 | 0.00 | 0.00 | 0.00 | 96 | 1023.1 |
| 20260902205239 | 65 | 325 | 0.9 | 1.7 | 0.00 | 0.00 | 0.00 | 96 | 1023.1 |
| 20260902204738 | 65 | 294 | 0.0 | 0.9 | 0.00 | 0.00 | 0.00 | 95 | 1022.9 |
| 20260902204239 | 65 | 329 | 0.0 | 0.9 | 0.00 | 0.00 | 0.00 | 97 | 1022.9 |
| 20260902203739 | 65 | 350 | 0.9 | 1.7 | 0.00 | 0.00 | 0.00 | 97 | 1022.8 |
| 20260902203238 | 65 | 332 | 0.0 | 0.9 | 0.00 | 0.00 | 0.00 | 96 | 1022.8 |
| 20260902202839 | 66 | 358 | 1.7 | 1.7 | 0.00 | 0.00 | 0.00 | 95 | 1022.8 |
| 20260902202238 | 66 | 320 | 0.9 | 1.7 | 0.00 | 0.00 | 0.00 | 95 | 1022.8 |
| 20260902201738 | 66 | 0.0 | 0.0 | 0.00 | 0.00 | 0.00 | 96 | 1022.8 | |
| 20260902201237 | 66 | 348 | 1.7 | 1.7 | 0.00 | 0.00 | 0.00 | 95 | 1023.1 |
| 20260902200736 | 66 | 334 | 0.9 | 1.7 | 0.00 | 0.00 | 0.00 | 95 | 1023.1 |
| 20260902200237 | 66 | 355 | 1.7 | 2.6 | 0.00 | 0.00 | 0.00 | 94 | 1023.1 |
| 20260902195736 | 66 | 170 | 3.5 | 5.2 | 0.00 | 0.00 | 0.00 | 94 | 1023.1 |
| 20260902195235 | 66 | 156 | 3.5 | 4.3 | 0.00 | 0.00 | 0.00 | 94 | 1023.1 |
| 20260902194235 | 66 | 25 | 2.6 | 2.6 | 0.00 | 0.00 | 0.00 | 93 | 1023.5 |
| 20260902193735 | 66 | 138 | 4.3 | 5.2 | 0.00 | 0.00 | 0.00 | 92 | 1023.5 |
| 20260902193336 | 66 | 133 | 4.3 | 7.0 | 0.00 | 0.00 | 0.00 | 92 | 1023.5 |
| 20260902192733 | 67 | 145 | 6.1 | 8.7 | 0.00 | 0.00 | 0.00 | 91 | 1023.1 |
| 20260902192232 | 67 | 204 | 3.5 | 6.1 | 0.00 | 0.00 | 0.00 | 91 | 1023.1 |
| 20260902191733 | 66 | 156 | 4.3 | 7.0 | 0.00 | 0.00 | 0.00 | 93 | 1023.5 |
| 20260902191233 | 65 | 139 | 5.2 | 7.8 | 0.00 | 0.00 | 0.00 | 94 | 1023.8 |
| 20260902190731 | 66 | 151 | 4.3 | 7.0 | 0.00 | 0.00 | 0.00 | 93 | 1023.6 |
| 20260902190231 | 65 | 20 | 1.7 | 2.6 | 0.00 | 0.00 | 0.00 | 94 | 1023.8 |
| 20260902185732 | 65 | 161 | 2.6 | 4.3 | 0.00 | 0.00 | 0.00 | 93 | 1023.5 |
| 20260902185231 | 66 | 146 | 3.5 | 5.2 | 0.00 | 0.00 | 0.00 | 93 | 1023.8 |
| 20260902184730 | 66 | 42 | 2.6 | 2.6 | 0.00 | 0.00 | 0.00 | 93 | 1023.5 |
| 20260902184229 | 65 | 324 | 1.7 | 2.6 | 0.00 | 0.00 | 0.00 | 94 | 1023.8 |
| 20260902183731 | 65 | 255 | 2.6 | 2.6 | 0.00 | 0.00 | 0.00 | 95 | 1023.8 |
| 20260902183230 | 65 | 299 | 2.6 | 2.6 | 0.00 | 0.00 | 0.00 | 95 | 1023.8 |
| 20260902182729 | 64 | 352 | 1.7 | 2.6 | 0.00 | 0.00 | 0.00 | 94 | 1024.0 |
| 20260902182230 | 65 | 85 | 2.6 | 2.6 | 0.00 | 0.00 | 0.00 | 94 | 1024.0 |
| 20260902181729 | 65 | 172 | 4.3 | 6.1 | 0.00 | 0.00 | 0.00 | 93 | 1023.8 |
| 20260902181229 | 65 | 26 | 1.7 | 1.7 | 0.00 | 0.00 | 0.00 | 94 | 1023.8 |
| 20260902180728 | 65 | 182 | 3.5 | 5.2 | 0.00 | 0.00 | 0.00 | 93 | 1024.0 |
| 20260902180230 | 65 | 139 | 2.6 | 4.3 | 0.00 | 0.00 | 0.00 | 95 | 1023.8 |
| 20260902175728 | 65 | 352 | 0.9 | 2.6 | 0.00 | 0.00 | 0.00 | 94 | 1024.2 |
| 20260902175328 | 65 | 8 | 2.6 | 2.6 | 0.00 | 0.00 | 0.00 | 94 | 1023.8 |
| 20260902174229 | 65 | 151 | 3.5 | 5.2 | 0.00 | 0.00 | 0.00 | 94 | 1023.8 |
| 20260902173727 | 65 | 74 | 1.7 | 2.6 | 0.00 | 0.00 | 0.00 | 94 | 1023.8 |
| 20260902173226 | 65 | 258 | 2.6 | 2.6 | 0.00 | 0.00 | 0.00 | 95 | 1023.8 |
| 20260902172725 | 64 | 258 | 2.6 | 4.3 | 0.00 | 0.00 | 0.00 | 96 | 1023.8 |
| 20260902172225 | 64 | 164 | 6.1 | 7.0 | 0.00 | 0.00 | 0.00 | 95 | 1023.8 |
| 20260902171726 | 64 | 39 | 2.6 | 4.3 | 0.00 | 0.00 | 0.00 | 96 | 1024.2 |
| 20260902171225 | 64 | 270 | 2.6 | 2.6 | 0.00 | 0.00 | 0.00 | 96 | 1024.2 |
| 20260902170724 | 64 | 0 | 1.7 | 2.6 | 0.00 | 0.00 | 0.00 | 96 | 1024.2 |
| 20260902170224 | 64 | 89 | 3.5 | 4.3 | 0.00 | 0.00 | 0.00 | 96 | 1024.2 |
| 20260902164823 | 64 | 290 | 1.7 | 1.7 | 0.00 | 0.00 | 0.00 | 95 | 1024.2 |
| 20260902164242 | 64 | 6 | 1.7 | 1.7 | 0.00 | 0.00 | 0.00 | 95 | 1024.2 |
| 20260902162723 | 63 | 275 | 2.6 | 2.6 | 0.00 | 0.00 | 0.00 | 96 | 1024.2 |
| 20260902162221 | 63 | 342 | 2.6 | 2.6 | 0.00 | 0.00 | 0.00 | 96 | 1024.5 |
| 20260902161820 | 63 | 163 | 2.6 | 6.1 | 0.00 | 0.00 | 0.00 | 96 | 1024.3 |
| 20260902161223 | 63 | 267 | 1.7 | 2.6 | 0.00 | 0.00 | 0.00 | 96 | 1024.2 |
| 20260902160720 | 64 | 302 | 1.7 | 1.7 | 0.00 | 0.00 | 0.00 | 95 | 1024.5 |
| 20260902155719 | 64 | 196 | 4.3 | 5.2 | 0.00 | 0.00 | 0.00 | 95 | 1024.5 |
| 20260902155220 | 64 | 169 | 5.2 | 7.0 | 0.00 | 0.00 | 0.00 | 94 | 1024.5 |
| 20260902154720 | 64 | 109 | 3.5 | 4.3 | 0.00 | 0.00 | 0.00 | 95 | 1024.5 |